Location: Kuppenheim
(48.8299°N, 8.2568°E)
Time: 00:22:30
(UTC+00:00)

ERBS - Pass Details

Date: 28 October 2021
Orbit: 394 x 407 km, 57.0° (Epoch: 28 November)

Event Time Altitude Azimuth Distance (km) Brightness Sun altitude
Exits shadow 03:07:04 12° 101° (E) 1,370 5.6 -30.1°
Drops below altitude 10° 03:07:30 10° 94° (E) 1,459 5.8 -30.0°
Sets 03:10:18 0° 68° (ENE) 2,329 7.2 -29.5°
